| time (UTC) | temp C | wind direction | speed KPH | gust KPH | rain 1hr cm | rain 24hr cm | rain mn cm | humidity % | barometer mb |
| 20260906191505 | 21 | 89 | 1.6 | 4.8 | 0.00 | 0.05 | 0.00 | 1 | 1005.9 |
| 20260906190003 | 21 | 77 | 12.9 | 20.9 | 0.00 | 0.08 | 0.00 | 1 | 1005.4 |
| 20260906184506 | 21 | 20 | 17.7 | 27.4 | 0.00 | 0.08 | 0.00 | 1 | 1005.5 |
| 20260906183004 | 21 | 21 | 9.7 | 17.7 | 0.00 | 0.08 | 0.00 | 1 | 1005.6 |
| 20260906181502 | 21 | 91 | 16.1 | 25.7 | 0.00 | 0.08 | 0.00 | 1 | 1005.7 |
| 20260906180006 | 21 | 15 | 11.3 | 20.9 | 0.00 | 0.08 | 0.00 | 1 | 1005.8 |
| 20260906174530 | 21 | 121 | 11.3 | 24.1 | 0.00 | 0.08 | 0.00 | 1 | 1006.0 |
| 20260906173007 | 21 | 89 | 6.4 | 14.5 | 0.00 | 0.08 | 0.00 | 1 | 1006.1 |
| 20260906171504 | 22 | 58 | 11.3 | 19.3 | 0.00 | 0.08 | 0.00 | 1 | 1006.8 |
| 20260906170002 | 22 | 37 | 11.3 | 19.3 | 0.00 | 0.08 | 0.00 | 1 | 1007.0 |
| 20260906164506 | 22 | 98 | 12.9 | 24.1 | 0.00 | 0.08 | 0.00 | 1 | 1007.0 |
| 20260906163004 | 22 | 41 | 11.3 | 17.7 | 0.00 | 0.08 | 0.00 | 1 | 1007.5 |
| 20260906161507 | 22 | 76 | 9.7 | 16.1 | 0.00 | 0.10 | 0.00 | 1 | 1007.7 |
| 20260906160005 | 22 | 100 | 12.9 | 20.9 | 0.00 | 0.13 | 0.00 | 1 | 1008.1 |
| 20260906154502 | 22 | 359 | 12.9 | 25.7 | 0.00 | 0.13 | 0.00 | 1 | 1008.4 |
| 20260906151502 | 22 | 124 | 16.1 | 29.0 | 0.00 | 0.13 | 0.00 | 1 | 1009.3 |
| 20260906150005 | 22 | 97 | 11.3 | 22.5 | 0.00 | 0.13 | 0.00 | 1 | 1009.7 |
| 20260906144504 | 22 | 103 | 9.7 | 22.5 | 0.00 | 0.13 | 0.13 | 1 | 1010.3 |
| 20260906143007 | 22 | 114 | 9.7 | 24.1 | 0.00 | 0.13 | 0.13 | 1 | 1010.4 |
| 20260906141505 | 22 | 79 | 14.5 | 30.6 | 0.00 | 0.13 | 0.13 | 1 | 1010.4 |
| 20260906134505 | 22 | 359 | 9.7 | 24.1 | 0.00 | 0.13 | 0.13 | 1 | 1011.1 |
| 20260906133008 | 22 | 93 | 9.7 | 19.3 | 0.00 | 0.13 | 0.13 | 1 | 1011.5 |
| 20260906131505 | 22 | 359 | 8.0 | 19.3 | 0.00 | 0.13 | 0.13 | 1 | 1012.0 |
| 20260906130003 | 22 | 131 | 9.7 | 19.3 | 0.00 | 0.13 | 0.13 | 1 | 1011.8 |
| 20260906124507 | 22 | 1 | 12.9 | 24.1 | 0.00 | 0.13 | 0.13 | 1 | 1012.1 |
| 20260906123004 | 22 | 31 | 14.5 | 20.9 | 0.00 | 0.13 | 0.13 | 1 | 1011.9 |
| 20260906121507 | 22 | 104 | 11.3 | 17.7 | 0.00 | 0.13 | 0.13 | 1 | 1012.8 |
| 20260906120006 | 21 | 87 | 8.0 | 16.1 | 0.00 | 0.18 | 0.13 | 1 | 1013.1 |
| 20260906114504 | 21 | 68 | 4.8 | 9.7 | 0.00 | 0.18 | 0.13 | 1 | 1013.5 |
| 20260906113006 | 21 | 55 | 6.4 | 12.9 | 0.00 | 0.18 | 0.13 | 1 | 1013.9 |
| 20260906111502 | 21 | 35 | 8.0 | 16.1 | 0.00 | 0.18 | 0.13 | 1 | 1014.0 |
| 20260906110006 | 21 | 77 | 8.0 | 14.5 | 0.00 | 0.18 | 0.13 | 100 | 1014.1 |
| 20260906103006 | 21 | 96 | 6.4 | 14.5 | 0.00 | 0.18 | 0.13 | 100 | 1014.0 |
| 20260906100006 | 21 | 72 | 9.7 | 19.3 | 0.00 | 0.18 | 0.13 | 100 | 1014.0 |
| 20260906094504 | 20 | 96 | 11.3 | 16.1 | 0.00 | 0.18 | 0.13 | 100 | 1013.7 |
| 20260906091503 | 21 | 86 | 9.7 | 16.1 | 0.00 | 0.18 | 0.13 | 100 | 1014.3 |
| 20260906090007 | 21 | 75 | 9.7 | 14.5 | 0.00 | 0.20 | 0.13 | 100 | 1014.5 |
| 20260906084505 | 20 | 28 | 9.7 | 16.1 | 0.00 | 0.20 | 0.13 | 100 | 1014.0 |
| 20260906083008 | 20 | 14 | 9.7 | 19.3 | 0.00 | 0.20 | 0.13 | 100 | 1014.4 |
| 20260906081505 | 20 | 13 | 9.7 | 22.5 | 0.00 | 0.20 | 0.13 | 100 | 1014.3 |
| 20260906080008 | 20 | 56 | 9.7 | 16.1 | 0.00 | 0.20 | 0.13 | 100 | 1014.5 |
| 20260906074506 | 20 | 18 | 12.9 | 19.3 | 0.00 | 0.20 | 0.13 | 100 | 1014.6 |
| 20260906073003 | 20 | 58 | 11.3 | 17.7 | 0.00 | 0.20 | 0.13 | 100 | 1014.6 |
| 20260906070004 | 20 | 96 | 4.8 | 6.4 | 0.00 | 0.20 | 0.13 | 100 | 1014.3 |
| 20260906063004 | 20 | 87 | 12.9 | 24.1 | 0.00 | 0.20 | 0.13 | 100 | 1013.9 |
| 20260906061503 | 20 | 11 | 9.7 | 16.1 | 0.00 | 0.20 | 0.13 | 100 | 1014.0 |
| 20260906060006 | 20 | 45 | 9.7 | 17.7 | 0.00 | 0.20 | 0.13 | 100 | 1014.4 |
| 20260906054504 | 20 | 15 | 11.3 | 17.7 | 0.00 | 0.20 | 0.13 | 100 | 1014.8 |
| 20260906053007 | 20 | 17 | 8.0 | 12.9 | 0.00 | 0.20 | 0.13 | 100 | 1015.3 |
| 20260906051504 | 20 | 60 | 12.9 | 19.3 | 0.00 | 0.20 | 0.13 | 100 | 1015.2 |
| 20260906044504 | 20 | 44 | 11.3 | 17.7 | 0.00 | 0.20 | 0.13 | 100 | 1015.0 |
| 20260906043008 | 20 | 120 | 9.7 | 17.7 | 0.00 | 0.20 | 0.13 | 100 | 1014.9 |
| 20260906041518 | 20 | 28 | 16.1 | 24.1 | 0.00 | 0.20 | 0.13 | 100 | 1015.1 |
| 20260906040003 | 20 | 34 | 12.9 | 24.1 | 0.00 | 0.20 | 0.13 | 100 | 1015.3 |
| 20260906034507 | 20 | 30 | 14.5 | 24.1 | 0.00 | 0.20 | 0.13 | 100 | 1015.0 |
| 20260906033005 | 19 | 34 | 12.9 | 22.5 | 0.00 | 0.23 | 0.13 | 100 | 1015.6 |
| 20260906031503 | 20 | 70 | 16.1 | 25.7 | 0.00 | 0.23 | 0.13 | 100 | 1015.5 |
| 20260906030006 | 20 | 349 | 12.9 | 19.3 | 0.00 | 0.23 | 0.13 | 100 | 1015.9 |
| 20260906023006 | 19 | 94 | 12.9 | 19.3 | 0.00 | 0.23 | 0.13 | 100 | 1016.3 |
| 20260906020006 | 20 | 14 | 14.5 | 27.4 | 0.00 | 0.23 | 0.13 | 100 | 1016.9 |
| 20260906014504 | 20 | 120 | 11.3 | 17.7 | 0.00 | 0.23 | 0.13 | 100 | 1017.2 |
| 20260906011504 | 20 | 37 | 9.7 | 24.1 | 0.00 | 0.23 | 0.13 | 100 | 1017.1 |
| 20260906010002 | 20 | 84 | 8.0 | 14.5 | 0.00 | 0.23 | 0.13 | 100 | 1016.8 |
| 20260906004506 | 19 | 32 | 12.9 | 29.0 | 0.00 | 0.23 | 0.13 | 100 | 1016.8 |
| 20260906001501 | 20 | 73 | 12.9 | 27.4 | 0.00 | 0.23 | 0.13 | 100 | 1016.8 |
| 20260906000005 | 19 | 46 | 14.5 | 22.5 | 0.00 | 0.23 | 0.13 | 100 | 1016.7 |
| 20260905233005 | 20 | 46 | 11.3 | 22.5 | 0.00 | 0.23 | 0.13 | 100 | 1017.1 |
| 20260905230006 | 20 | 98 | 11.3 | 19.3 | 0.00 | 0.23 | 0.13 | 100 | 1017.3 |
| 20260905224503 | 20 | 15 | 14.5 | 22.5 | 0.00 | 0.23 | 0.13 | 100 | 1017.4 |
| 20260905223006 | 20 | 10 | 12.9 | 19.3 | 0.00 | 0.23 | 0.13 | 100 | 1017.3 |
| 20260905221504 | 20 | 91 | 9.7 | 16.1 | 0.00 | 0.23 | 0.13 | 100 | 1017.2 |
| 20260905220007 | 20 | 39 | 9.7 | 19.3 | 0.00 | 0.23 | 0.13 | 100 | 1016.9 |
| 20260905214504 | 20 | 14 | 12.9 | 20.9 | 0.00 | 0.23 | 0.13 | 100 | 1016.7 |
| 20260905213002 | 20 | 21 | 11.3 | 19.3 | 0.00 | 0.20 | 0.10 | 100 | 1016.9 |
| 20260905211505 | 20 | 105 | 9.7 | 14.5 | 0.00 | 0.18 | 0.08 | 100 | 1017.0 |
| 20260905210003 | 20 | 105 | 14.5 | 27.4 | 0.00 | 0.18 | 0.08 | 100 | 1017.0 |
| 20260905204505 | 20 | 100 | 11.3 | 19.3 | 0.00 | 0.18 | 0.08 | 100 | 1016.8 |
| 20260905203001 | 20 | 84 | 12.9 | 29.0 | 0.00 | 0.18 | 0.08 | 100 | 1016.8 |
| 20260905201505 | 20 | 359 | 11.3 | 24.1 | 0.00 | 0.18 | 0.08 | 100 | 1016.7 |
| 20260905194505 | 21 | 75 | 12.9 | 20.9 | 0.00 | 0.18 | 0.08 | 100 | 1016.4 |
| 20260905193003 | 21 | 23 | 9.7 | 17.7 | 0.00 | 0.18 | 0.08 | 100 | 1016.4 |